Regional Weather Roundup
Issued by NWS

Home | Current Version | Previous Version | Graphics & Text | Print | Product List | Glossary On
Versions: 1 2 3 4 5 6 7 8 9 10 11 12 13 14 15 16 17 18 19 20 21 22 23 24 25 26 27 28 29 30 31 32 33 34 35 36 37 38 39 40 41 42 43 44 45 46 47 48 49 50
000
ASUS43 KFSD 170610
RWRSD

WEATHER ROUNDUP FOR SOUTH DAKOTA
NATIONAL WEATHER SERVICE SIOUX FALLS SD
1200 AM CST TUE JAN 17 2017

NOTE: "FAIR" INDICATES FEW OR NO CLOUDS BELOW 12,000 FEET WITH NO
SIGNIFICANT WEATHER AND/OR OBSTRUCTIONS TO VISIBILITY.


SDZ001>005-009-010-012>017-170700-
NORTHWEST AND NORTH CENTRAL SOUTH DAKOTA

CITY           SKY/WX    TMP DP  RH WIND       PRES   REMARKS
BUFFALO          N/A     17   8  67 W6        29.97F WCI   9
FAITH            N/A     13   9  84 W14       30.07R WCI  -2
MOBRIDGE       CLOUDY    11   6  81 NW7       30.03S WCI   0
$$

SDZ012>016-024>037-041>051-057-063-072>074-170700-
SOUTHWEST AND SOUTH CENTRAL SOUTH DAKOTA

CITY           SKY/WX    TMP DP  RH WIND       PRES   REMARKS
RAPID CTY ARPT CLOUDY    18  10  71 CALM      30.06S
PIERRE         CLOUDY    14  11  87 W8        30.06F WCI   3
CUSTER         CLOUDY    25   6  44 W7        30.01F WCI  17
ELLSWORTH AFB  CLOUDY    19  12  73 SW5       30.05S WCI  13
PHILIP         CLOUDY    15  10  80 W7        30.08F WCI   5
PINE RIDGE     CLEAR      7   5  91 NE5       30.08S WCI  -2
SPEARFISH      FAIR      25  12  58 SW5       30.04F WCI  19
WINNER         FAIR      17  13  84 W5        30.07S WCI  10
$$

SDZ004>011-016>023-039-040-170700-
NORTHEAST SOUTH DAKOTA

CITY           SKY/WX    TMP DP  RH WIND       PRES   REMARKS
ABERDEEN       CLOUDY     1  -3  83 W3        30.04F
WATERTOWN      FOG        2  -1  88 CALM      30.00R VSB 1
BROOKINGS      MIX PCPN  18  17  96 NW7       29.98S VSB 1/2 WCI   9
SISSETON         N/A      5   3  91 CALM      30.02S
$$

SDZ017-020-022-023-036>040-048>070-170700-
SOUTHEAST SOUTH DAKOTA

CITY           SKY/WX    TMP DP  RH WIND       PRES   REMARKS
SIOUX FALLS    CLOUDY    25  22  88 NW10      29.99R WCI  15
HURON          CLOUDY     4   3  96 NW6       30.06S WCI  -7
CHAMBERLAIN    CLOUDY    14  11  90 W9        30.07S WCI   1
MITCHELL       CLOUDY    11   7  84 W7        30.07R WCI   0
YANKTON        CLOUDY    18  10  73 CALM      30.03S
$$

ABBREVIATIONS USED IN REMARKS
   TC - TEMPERATURE IN CELSIUS
  WCI - WIND CHILL INDEX
   HX - HEAT INDEX
  VSB - VISIBILITY




USA.gov is the U.S. government's official web portal to all federal, state and local government web resources and services.